Accueil
METAR-TAF:

METAR-TAF

Aéroports :

Morlaix, France

Aéroport de Morlaix Ploujean

latitude: 48-36N, longitude: 3-49W, altitude: 84 m

Observation

Le bulletin a été fait il y a 31 minutes, à 13:00 UTC
Vent 14 kt de ouest/nord-ouest
Température 13°C
Humidité 72%
Pression 1024 hPa
Visibilité 10 km ou plus
Nuages fragmentés à une hauteur de 2800 ft
Nuages fragmentés à une hauteur de 3600 ft
Ciel couvert à une hauteur de 5200 ft

METAR: LFRU 221300Z AUTO 29014KT 9999 BKN028 BKN036 OVC052 13/08 Q1024

Heure: 15:31 (13:31 UTC)


TAF: absent

Observations et prévisions météorologiques de plus de 4000 aéroports (messages METAR et TAF).

Les stations disponibles sont représentées par des disques jaunes et rouges sur la carte.

Passer la souris dessus pour voir le nom de la station.

Cliquer dessus pour voir les observations et prévisions météorologiques.

Pour changer de carte: cliquez sur les boutons verts avec une croix noire pour zoomer, sur le bouton vert avec un tiret pour effectuer un zoom arrière, ou sur les flèches vertes pour les cartes adjacentes.


METAR-TAF: